Voltar ao catálogo

STARLINK-35543

AtivoComunicaçõesVLEO
NORAD 66201·PAYLOAD·🇺🇸 United States

Lançado Oct 26, 2025 de Cape Canaveral Space Force Station

Loading…

Próximas Passagens (próximas 24 horas)

TLE

AtualizadoSource: CelesTrak SupGP

Época: Sep 14, 2026, 21:22 UTC

1 66201C 25243AA  26257.89076389 -.00007095  00000+0 -22820-3 0  2579
2 66201  53.1587  85.0092 0001350  84.6278 192.9678 15.31701066    17

Acompanhe STARLINK-35543 em tempo real com AllMySat

Download on the App Store